Flag for Fiji Weather past 2 weeks in Lautoka, Fiji

Now
84 °F

Passing clouds.


Feels Like: 92 °F
Forecast: 76 / 84 °F
Wind: 10 mph from West

Location: Nandi

Current Time: May 29, 2015 at 2:38:09 PM

Latest Report: May 29, 2015 at 2:00 PM


Visibility: N/A

Pressure: 29.89 "Hg

Humidity: 74%

Dew point: 75 °F

Location of LautokaLocation

Historic Weather in Lautoka — Graph

°F

Lautoka temperature yesterday

Maximum temperature yesterday: 84 °F (at 12:00 PM)
Minimum temperature yesterday: 66 °F (at 6:00 AM)
Average temperature yesterday: 74 °F

Past Weeks' High & Low Weather Summary

 TemperatureHumidityPressure
High88 °F (May 25, 2:00 PM)100% (May 16, 6:00 AM)30.07 "Hg (May 16, 6:00 AM)
Low59 °F (May 19, 6:00 AM)45% (May 18, 1:00 PM)29.83 "Hg (May 15, 3:00 PM)
Average74 °F74%29.97 "Hg
* Reported May 14 1:00 PM — May 29 1:00 PM, Lautoka, Weather by CustomWeather, © 2015

Note: Actual official high and low records may vary slightly from our data, if they occured in-between our weather recording intervals... More about our weather records

Advertising

Lautoka weather history for previous 24 hours

 ConditionsComfort  
Time TempWeatherWind HumidityBarometerVisibility
1:00 PM
Fri, May 29
84 °FPartly sunny.10 mph70%29.92 "HgN/A
12:00 PM84 °FPartly sunny.10 mph62%29.95 "HgN/A
11:00 AM84 °FScattered clouds.No wind70%29.98 "HgN/A
10:00 AM82 °FScattered clouds.No wind70%30.01 "HgN/A
9:00 AM79 °FPartly sunny.No wind79%30.01 "HgN/A
8:00 AM75 °FBroken clouds.No wind83%30.01 "HgN/A
7:00 AM70 °FScattered clouds.No wind94%29.98 "HgN/A
6:00 AM70 °FPassing clouds.No wind94%29.95 "HgN/A
5:00 AM68 °FPassing clouds.3 mph94%29.95 "HgN/A
4:00 AM68 °FPassing clouds.3 mph94%29.95 "HgN/A
3:00 AM68 °FPassing clouds.3 mph94%29.98 "HgN/A
2:00 AM68 °FPassing clouds.3 mph94%29.98 "HgN/A
1:00 AM70 °FPassing clouds.No wind94%29.98 "HgN/A
12:00 AM70 °FPassing clouds.No wind94%29.98 "HgN/A
11:00 PM
Thu, May 28
70 °FPassing clouds.3 mph94%29.98 "HgN/A
10:00 PM70 °FPassing clouds.3 mph94%30.01 "HgN/A
9:00 PM72 °FPassing clouds.3 mph88%30.01 "HgN/A
8:00 PM73 °FPassing clouds.3 mph83%30.01 "HgN/A
7:00 PM75 °FPassing clouds.No wind83%29.98 "HgN/A
6:00 PM77 °FPassing clouds.8 mph74%29.95 "HgN/A
5:00 PM81 °FScattered clouds.9 mph70%29.95 "HgN/A
4:00 PM81 °FPassing clouds.8 mph66%29.95 "HgN/A
3:00 PM82 °FScattered clouds.12 mph62%29.95 "HgN/A
2:00 PM81 °FScattered clouds.12 mph62%29.95 "HgN/A
Weather by CustomWeather, © 2015

See weather overviewHow to use our weather pages